Satellite: PO-28
Catalog number: 22829
Epoch time:      08002.59348708
Element set:    0840
Inclination:      098.3437 deg
RA of node:       331.1975 deg
Eccentricity:    0.0009738
Arg of perigee:   008.3597 deg
Mean anomaly:     351.7753 deg
Mean motion:   14.30176051 rev/day
Decay rate:       -7.9e-07 rev/day^2
Epoch rev:           74431
Checksum:              327

Satellite: GO-32
Catalog number: 25397
Epoch time:      08002.62299876
Element set:    0493
Inclination:      098.3889 deg
RA of node:       045.8233 deg
Eccentricity:    0.0001606
Arg of perigee:   041.5897 deg
Mean anomaly:     318.5391 deg
Mean motion:   14.23135917 rev/day
Decay rate:      -1.25e-06 rev/day^2
Epoch rev:           49252
Checksum:              330

Satellite: MO-46
Catalog number: 26548
Epoch time:      08002.76597308
Element set:     988
Inclination:      064.5580 deg
RA of node:       285.2087 deg
Eccentricity:    0.0009746
Arg of perigee:   346.1348 deg
Mean anomaly:     013.9513 deg
Mean motion:   14.83215035 rev/day
Decay rate:        7.1e-07 rev/day^2
Epoch rev:           39313
Checksum:              322

Satellite: NO-44
Catalog number: 26931
Epoch time:      08002.49015076
Element set:    0771
Inclination:      067.0530 deg
RA of node:       354.0829 deg
Eccentricity:    0.0004841
Arg of perigee:   262.4895 deg
Mean anomaly:     097.5659 deg
Mean motion:   14.29507029 rev/day
Decay rate:        1.5e-07 rev/day^2
Epoch rev:           32658
Checksum:              312

Satellite: SO-50
Catalog number: 27607
Epoch time:      08002.61863740
Element set:    0495
Inclination:      064.5572 deg
RA of node:       199.4807 deg
Eccentricity:    0.0076488
Arg of perigee:   313.0525 deg
Mean anomaly:     046.4166 deg
Mean motion:   14.71315230 rev/day
Decay rate:      -1.01e-06 rev/day^2
Epoch rev:           27046
Checksum:              295

Satellite: CO-55
Catalog number: 27844
Epoch time:      08002.64888515
Element set:     202
Inclination:      098.7181 deg
RA of node:       013.2179 deg
Eccentricity:    0.0009136
Arg of perigee:   234.8267 deg
Mean anomaly:     125.2051 deg
Mean motion:   14.20551926 rev/day
Decay rate:        6.0e-08 rev/day^2
Epoch rev:           23379
Checksum:              295

Satellite: CO-57
Catalog number: 27848
Epoch time:      08003.61102466
Element set:     159
Inclination:      098.7176 deg
RA of node:       013.2985 deg
Eccentricity:    0.0009129
Arg of perigee:   237.0001 deg
Mean anomaly:     123.0296 deg
Mean motion:   14.20365890 rev/day
Decay rate:        2.7e-07 rev/day^2
Epoch rev:           23390
Checksum:              291

Satellite: AO-51
Catalog number: 28375
Epoch time:      08002.56238131
Element set:    0997
Inclination:      098.0887 deg
RA of node:       036.3542 deg
Eccentricity:    0.0083804
Arg of perigee:   298.9935 deg
Mean anomaly:     060.2873 deg
Mean motion:   14.40592728 rev/day
Decay rate:        1.6e-07 rev/day^2
Epoch rev:           18441
Checksum:              330

Satellite: CO-56
Catalog number: 28941
Epoch time:      08002.90798872
Element set:    0764
Inclination:      098.1090 deg
RA of node:       092.1924 deg
Eccentricity:    0.0196086
Arg of perigee:   281.5052 deg
Mean anomaly:     076.4241 deg
Mean motion:   15.47829846 rev/day
Decay rate:     1.3284e-04 rev/day^2
Epoch rev:           10424
Checksum:              334

Satellite: HO-59
Catalog number: 29484
Epoch time:      08003.66183373
Element set:       4
Inclination:      098.2580 deg
RA of node:       091.2033 deg
Eccentricity:    0.0147035
Arg of perigee:   257.6470 deg
Mean anomaly:     100.8377 deg
Mean motion:   15.68656181 rev/day
Decay rate:     4.4771e-04 rev/day^2
Epoch rev:            7231
Checksum:              311

Satellite: NO-61
Catalog number: 29664
Epoch time:      07359.16654419
Element set:     738
Inclination:      051.6179 deg
RA of node:       150.0690 deg
Eccentricity:    0.0003189
Arg of perigee:   248.8461 deg
Mean anomaly:     111.8136 deg
Mean motion:   16.51627846 rev/day
Decay rate:  1.4620719e-01 rev/day^2
Epoch rev:            5877
Checksum:              345

Satellite: CP4
Catalog number: 31122
Epoch time:      08002.68342450
Element set:    0227
Inclination:      098.0647 deg
RA of node:       074.2944 deg
Eccentricity:    0.0086520
Arg of perigee:   125.7593 deg
Mean anomaly:     235.1659 deg
Mean motion:   14.55070997 rev/day
Decay rate:       5.51e-06 rev/day^2
Epoch rev:           03786
Checksum:              305

Satellite: CP3
Catalog number: 31128
Epoch time:      08002.69959404
Element set:    0223
Inclination:      098.0612 deg
RA of node:       073.0083 deg
Eccentricity:    0.0103598
Arg of perigee:   129.2360 deg
Mean anomaly:     231.8089 deg
Mean motion:   14.51899788 rev/day
Decay rate:       -4.6e-07 rev/day^2
Epoch rev:           03777
Checksum:              313

